Temp
16 16 16 16 16 16 16 17 17 17 17 18 18 18 19 19 19 19 20 20 20 20 20 19 19 19 20 19 19 19 22 21 21 20 21 19 20 18 19 19 18 17 17 18 18
15 16 16 16 16 16 16 16 17 17 17 17 18 18 18 19 19 19 19 19 19 19 19 19 19 19 19 17 17 20 22 21 20 20 21 19 19 19 19 19 19 17 17 17 17
16 15 15 16 16 16 16 16 16 17 17 17 17 18 18 18 19 19 19 19 19 19 19 19 19 19 18 17 17 17 21 19 18 18 18 19 18 18 19 20 19 18 15 16 17
16 15 15 15 16 16 16 16 16 16 16 17 17 17 18 18 20 19 19 19 18 18 18 19 19 18 19 19 16 20 17 17 17 16 16 18 17 18 18 18 17 17 17 16 16
15 15 15 15 15 15 15 16 16 16 16 16 16 17 17 18 18 19 19 19 18 18 18 18 18 17 19 18 17 18 17 16 16 16 16 16 17 18 17 16 16 16 16 16 16
15 15 15 15 15 15 15 16 16 16 16 16 16 16 17 17 18 18 18 18 18 18 18 18 18 18 17 17 18 16 16 17 16 16 15 16 17 15 15 14 14 14 15 15 15
14 14 14 14 15 15 15 15 16 15 16 16 16 16 16 17 18 18 17 17 17 17 17 17 17 17 16 16 14 15 18 18 18 16 17 15 16 17 14 11 11 11 13 14 14
14 14 14 14 14 15 15 15 15 15 15 15 15 16 16 17 17 16 17 17 17 17 17 17 17 17 16 15 15 17 17 19 18 15 15 15 21 17 12 12 12 10 12 13 13
14 14 14 14 14 14 14 14 14 14 14 14 15 15 15 16 15 16 16 15 16 16 16 16 16 15 15 18 18 16 20 18 18 15 16 16 20 16 13 13 13 11 11 10 11
13 13 13 13 13 13 14 14 14 14 14 14 13 14 15 15 15 15 14 14 15 15 14 15 14 16 16 18 19 19 17 16 18 17 15 17 18 16 13 13 14 12 8 7 7
13 13 13 13 13 13 13 13 13 13 13 16 15 15 15 15 15 14 14 14 14 14 16 12 16 16 18 18 18 17 17 18 17 15 15 18 18 19 16 13 13 11 8 7 7
13 13 12 12 12 12 12 12 13 12 13 14 14 14 14 14 13 13 13 14 14 15 13 14 15 18 14 14 15 15 16 17 16 14 15 17 16 18 16 14 13 12 8 6 7
13 12 12 11 10 10 11 12 12 12 12 13 14 14 14 14 15 13 13 13 14 13 14 17 16 13 14 13 14 14 16 17 16 13 13 14 16 17 15 9 7 7 7 5 6
12 12 11 9 7 8 9 13 11 12 14 14 11 12 12 14 13 13 12 13 12 15 13 15 13 13 13 14 15 15 14 14 14 14 15 13 17 17 15 12 7 6 6 5 5
10 11 8 7 8 8 12 12 11 12 13 13 9 10 10 13 10 9 11 12 13 12 13 16 11 12 13 15 13 15 12 13 13 14 13 14 14 17 12 13 10 7 6 5 4
8 10 7 7 7 9 11 11 11 13 12 11 9 10 11 9 9 9 10 11 10 11 11 13 10 12 14 10 12 10 11 11 11 12 12 14 15 17 17 16 12 8 5 4 3
9 10 8 7 7 8 10 9 11 12 13 11 10 10 10 9 9 10 10 11 12 12 12 11 12 11 10 11 10 12 13 13 12 12 13 10 12 17 16 12 11 8 5 4 3
8 8 7 7 7 8 8 10 11 15 15 9 9 9 11 10 9 8 9 11 11 11 11 12 13 11 11 14 13 12 15 15 13 13 14 7 12 15 9 6 5 6 5 3 2
7 8 7 7 7 8 7 9 13 14 16 11 9 10 10 10 10 9 9 12 12 11 14 12 12 9 9 10 13 11 11 13 10 4 11 15 13 13 7 7 5 5 4 3 3
8 8 8 8 7 7 7 10 12 14 13 12 14 13 12 10 10 10 10 11 10 10 12 14 13 9 9 10 9 12 12 11 11 11 12 14 13 17 10 10 6 4 4 3 3
8 8 8 8 8 7 8 9 11 12 12 12 13 13 13 11 12 10 12 11 12 9 11 12 12 9 9 10 12 10 11 11 12 12 13 14 16 14 14 12 9 7 5 4 3
8 8 8 9 8 8 8 9 11 12 11 13 12 14 12 11 11 11 11 14 11 9 10 11 10 10 10 8 7 12 13 12 13 10 10 10 14 8 9 11 9 9 5 4 4
8 8 8 8 9 8 9 10 11 11 12 12 11 12 13 12 12 12 11 11 10 11 11 10 10 10 10 9 7 9 9 12 14 9 11 12 13 7 6 7 7 8 6 6 5
8 8 8 8 9 9 9 9 9 10 11 12 12 12 12 12 12 12 11 9 8 11 11 12 10 12 13 14 12 9 9 9 11 11 12 12 13 9 9 8 8 6 7 5 7
6 6 6 8 9 9 10 10 9 9 10 11 10 12 12 11 12 12 12 7 6 8 8 11 10 12 13 12 11 11 11 9 10 13 12 14 12 11 10 9 10 10 6 5 6
3 3 4 4 5 9 9 9 10 10 9 9 10 10 11 11 12 12 12 11 10 6 7 8 9 10 9 9 9 9 10 9 10 12 12 12 12 13 11 9 7 6 5 6 6
3 3 3 4 4 5 9 9 9 10 10 11 10 10 9 11 12 13 12 12 11 8 6 7 7 6 8 7 5 6 8 9 9 11 11 10 11 7 7 6 7 6 7 7 6
Height
1554 1554 1556 1556 1557 1556 1556 1556 1556 1556 1556 1556 1555 1555 1555 1554 1553 1553 1552 1553 1553 1553 1553 1554 1555 1555 1555 1554 1554 1554 1554 1558 1559 1561 1558 1563 1563 1564 1564 1564 1565 1564 1564 1565 1565
1553 1554 1554 1555 1556 1556 1555 1555 1556 1556 1556 1555 1554 1554 1553 1553 1552 1551 1552 1551 1551 1552 1553 1554 1554 1554 1555 1556 1556 1555 1553 1555 1557 1558 1558 1562 1562 1563 1564 1564 1565 1565 1563 1563 1563
1552 1552 1553 1554 1555 1555 1555 1555 1555 1555 1555 1554 1554 1553 1553 1552 1552 1550 1550 1550 1550 1551 1553 1554 1554 1554 1555 1556 1557 1557 1553 1558 1559 1560 1561 1561 1562 1562 1562 1561 1562 1563 1563 1563 1562
1550 1551 1552 1553 1553 1554 1554 1554 1554 1554 1553 1553 1553 1553 1552 1552 1553 1550 1550 1550 1550 1551 1553 1554 1554 1554 1555 1555 1557 1556 1558 1559 1559 1559 1561 1561 1561 1561 1561 1561 1560 1560 1561 1562 1562
1547 1548 1550 1551 1551 1552 1553 1553 1553 1553 1552 1552 1552 1552 1552 1551 1550 1549 1550 1550 1551 1552 1553 1554 1554 1554 1554 1556 1557 1556 1558 1558 1558 1558 1559 1559 1558 1559 1559 1558 1558 1559 1560 1560 1559
1544 1545 1547 1548 1549 1549 1550 1551 1551 1551 1551 1551 1550 1550 1551 1551 1547 1548 1548 1549 1550 1551 1552 1553 1554 1554 1555 1556 1557 1557 1558 1557 1556 1555 1556 1557 1557 1558 1555 1554 1556 1559 1559 1559 1558
1540 1542 1543 1545 1546 1547 1548 1548 1549 1549 1549 1549 1549 1548 1548 1548 1546 1546 1547 1547 1549 1550 1551 1552 1553 1554 1555 1556 1557 1557 1556 1553 1551 1553 1553 1555 1556 1551 1551 1553 1556 1557 1557 1557 1557
1536 1538 1540 1541 1543 1544 1545 1546 1546 1547 1547 1547 1546 1546 1545 1542 1542 1543 1545 1546 1547 1548 1550 1551 1552 1553 1555 1557 1558 1557 1557 1552 1549 1551 1553 1555 1542 1547 1549 1552 1555 1555 1555 1555 1555
1531 1534 1536 1538 1539 1541 1542 1543 1544 1544 1544 1544 1544 1545 1542 1538 1539 1540 1542 1544 1545 1547 1548 1550 1552 1553 1556 1554 1556 1556 1547 1552 1549 1550 1552 1553 1543 1548 1550 1553 1554 1554 1554 1554 1555
1526 1529 1531 1533 1535 1537 1539 1540 1541 1541 1541 1542 1541 1546 1538 1535 1535 1537 1540 1542 1544 1546 1549 1551 1552 1552 1554 1551 1548 1546 1552 1552 1549 1549 1551 1548 1544 1547 1549 1551 1551 1553 1554 1554 1554
1520 1523 1526 1529 1531 1533 1537 1539 1542 1539 1535 1533 1532 1532 1530 1533 1534 1535 1538 1541 1543 1546 1545 1550 1549 1545 1540 1543 1544 1546 1547 1545 1547 1551 1551 1545 1543 1540 1546 1548 1548 1549 1550 1551 1552
1513 1518 1520 1523 1527 1529 1532 1534 1535 1534 1531 1527 1528 1529 1530 1530 1532 1533 1537 1541 1541 1540 1546 1550 1543 1537 1544 1548 1548 1550 1548 1544 1547 1551 1551 1544 1543 1537 1540 1540 1542 1544 1547 1549 1549
1507 1511 1515 1519 1522 1524 1526 1530 1532 1533 1532 1522 1520 1521 1524 1528 1527 1528 1533 1535 1536 1540 1539 1534 1535 1538 1542 1548 1550 1548 1546 1543 1545 1550 1550 1548 1535 1529 1532 1537 1539 1540 1542 1543 1544
1499 1504 1509 1515 1521 1520 1520 1527 1530 1533 1528 1514 1513 1511 1516 1521 1524 1524 1528 1532 1535 1532 1539 1536 1536 1538 1541 1541 1543 1543 1543 1545 1548 1550 1545 1546 1528 1523 1523 1528 1533 1535 1537 1539 1540
1493 1497 1503 1507 1511 1514 1518 1524 1529 1533 1533 1503 1508 1509 1510 1515 1516 1521 1524 1527 1529 1531 1535 1526 1534 1537 1536 1533 1540 1538 1544 1545 1548 1547 1550 1543 1543 1515 1524 1519 1524 1529 1532 1535 1539
1485 1489 1497 1504 1506 1511 1516 1521 1528 1534 1509 1501 1504 1507 1510 1514 1516 1520 1524 1526 1528 1532 1533 1528 1532 1532 1530 1536 1538 1545 1547 1550 1553 1552 1546 1531 1533 1509 1507 1506 1516 1525 1531 1533 1534
1476 1480 1486 1499 1498 1508 1513 1519 1526 1509 1488 1496 1498 1502 1504 1510 1515 1516 1519 1522 1521 1530 1527 1530 1527 1528 1530 1535 1542 1540 1540 1544 1550 1552 1535 1540 1537 1503 1503 1511 1513 1518 1527 1532 1535
1466 1470 1473 1483 1494 1503 1508 1513 1505 1457 1471 1488 1493 1498 1498 1503 1510 1514 1515 1515 1519 1520 1522 1521 1520 1520 1521 1517 1524 1531 1526 1525 1536 1535 1522 1549 1526 1502 1512 1514 1514 1516 1522 1528 1532
1459 1461 1466 1471 1481 1492 1497 1491 1446 1452 1457 1479 1492 1493 1496 1499 1500 1507 1508 1501 1500 1508 1508 1514 1513 1515 1517 1518 1519 1531 1530 1525 1538 1563 1535 1509 1511 1505 1512 1512 1513 1515 1520 1523 1526
1446 1451 1452 1461 1470 1476 1476 1459 1448 1451 1457 1467 1465 1471 1479 1488 1493 1497 1499 1490 1493 1495 1498 1499 1505 1515 1517 1518 1519 1516 1516 1529 1529 1531 1525 1505 1504 1485 1503 1501 1510 1514 1516 1520 1523
1435 1435 1435 1450 1459 1457 1448 1437 1448 1453 1454 1460 1460 1462 1465 1475 1477 1483 1478 1482 1483 1490 1495 1499 1503 1516 1516 1509 1502 1516 1513 1516 1512 1512 1507 1497 1484 1484 1485 1493 1500 1505 1510 1514 1517
1418 1417 1422 1437 1439 1435 1437 1423 1444 1445 1451 1450 1450 1448 1457 1465 1468 1472 1468 1463 1471 1478 1491 1490 1497 1504 1501 1503 1506 1496 1493 1497 1495 1513 1510 1509 1480 1489 1489 1491 1496 1500 1506 1510 1513
1407 1408 1410 1416 1411 1420 1422 1427 1435 1439 1439 1442 1445 1445 1449 1454 1460 1456 1459 1461 1466 1468 1473 1482 1494 1500 1498 1503 1505 1498 1495 1488 1484 1500 1491 1496 1475 1491 1491 1492 1493 1496 1500 1505 1509
1398 1393 1397 1393 1400 1405 1413 1413 1421 1427 1432 1435 1435 1444 1445 1443 1445 1445 1452 1458 1460 1461 1463 1463 1473 1467 1460 1458 1466 1482 1483 1485 1482 1482 1474 1466 1471 1487 1487 1490 1491 1492 1495 1499 1502
1389 1383 1383 1380 1384 1390 1400 1397 1406 1414 1418 1426 1428 1423 1430 1439 1438 1433 1442 1456 1461 1460 1460 1461 1463 1459 1452 1457 1462 1460 1461 1474 1470 1457 1465 1454 1464 1471 1476 1480 1481 1484 1488 1494 1495
1386 1389 1386 1385 1384 1382 1383 1383 1390 1399 1405 1409 1411 1414 1423 1422 1410 1421 1432 1438 1443 1456 1456 1457 1453 1456 1459 1460 1462 1461 1455 1455 1455 1454 1452 1457 1452 1460 1466 1473 1478 1479 1483 1487 1488
1377 1382 1386 1378 1379 1379 1370 1371 1375 1390 1390 1393 1398 1410 1410 1398 1414 1416 1419 1422 1425 1433 1445 1453 1453 1461 1447 1459 1468 1464 1438 1446 1446 1444 1446 1452 1442 1457 1465 1468 1471 1472 1476 1480 1483
Wind_Speed
3 3 2 2 2 2 2 2 2 2 3 3 4 5 5 6 7 7 5 4 5 6 5 4 2 2 2 4 3 3 3 5 7 7 5 4 5 3 2 2 1 1 2 4 5
5 4 4 4 4 4 4 4 4 4 5 5 6 6 6 6 7 5 4 5 6 7 6 6 4 3 3 2 2 1 2 4 3 4 6 5 2 2 3 2 4 3 1 3 3
8 7 6 6 6 6 6 6 6 6 6 7 7 7 7 7 6 2 1 4 6 8 8 6 5 2 3 2 2 1 0 4 4 4 4 4 2 3 3 3 3 3 4 3 2
11 10 9 8 8 8 8 8 8 7 7 7 7 8 7 5 3 2 2 4 7 9 9 6 3 2 1 2 1 2 2 3 4 6 4 4 3 3 7 2 8 4 7 3 1
14 13 12 11 11 11 11 10 10 9 9 8 9 8 7 4 5 5 4 5 8 8 7 4 2 3 3 3 3 2 3 3 4 6 5 5 8 5 7 11 10 7 6 3 3
18 16 14 14 13 13 13 12 11 11 11 10 10 9 7 6 7 8 8 9 10 9 7 5 3 4 5 2 2 2 3 5 6 5 6 7 4 6 6 14 12 10 8 7 5
21 19 17 16 15 15 15 14 13 12 12 11 11 10 11 11 8 8 9 10 11 11 9 7 5 5 7 4 2 0 4 7 7 4 5 8 5 9 7 13 11 8 6 3 2
24 22 20 18 18 17 16 15 14 13 12 12 10 9 7 11 12 14 12 10 11 10 9 8 7 7 3 7 2 2 2 4 3 4 2 8 4 6 14 15 10 7 4 3 3
26 25 23 21 19 18 17 16 15 14 13 11 10 7 6 10 13 14 13 12 11 10 9 9 10 4 5 4 3 2 6 7 3 1 2 7 1 7 13 11 8 8 6 4 3
29 27 25 22 21 20 17 16 14 14 14 12 12 4 13 7 10 13 14 13 10 13 11 7 3 4 3 7 8 6 5 5 6 2 3 6 12 5 13 12 11 7 4 2 2
31 29 26 24 22 20 17 13 11 8 15 11 6 5 3 11 10 11 15 16 12 8 7 3 7 12 17 15 6 1 4 11 2 1 4 10 12 10 15 12 13 10 9 8 5
31 30 27 24 22 21 18 10 9 3 7 15 22 18 9 13 8 14 18 11 8 8 8 5 13 13 2 8 8 5 9 14 6 3 4 9 14 16 12 14 15 13 12 10 8
32 30 28 24 21 21 21 18 12 5 6 8 21 22 20 20 10 20 24 11 6 9 15 12 2 7 8 7 10 11 14 12 9 1 5 5 15 18 7 6 6 10 13 13 13
32 30 26 21 17 21 23 18 11 3 5 6 8 10 17 17 7 16 26 9 5 13 9 8 3 6 8 8 12 14 12 10 8 4 8 2 7 6 7 8 10 13 16 16 17
31 30 24 26 13 20 21 15 16 6 8 4 5 6 13 11 14 10 21 9 8 8 7 6 9 10 11 9 11 6 5 9 6 9 5 9 6 7 4 10 12 16 19 19 17
28 29 23 27 24 18 14 21 20 4 13 5 5 6 9 3 3 7 9 5 5 4 2 5 0 5 4 3 7 12 6 5 3 1 8 15 13 7 7 7 7 16 18 20 21
38 40 33 34 35 23 20 28 6 13 4 8 6 8 8 6 5 6 11 11 9 8 13 4 10 4 5 5 2 6 10 4 4 5 7 1 9 9 7 2 3 16 20 20 21
38 39 39 42 36 29 31 8 14 16 20 4 6 8 11 9 4 6 10 12 14 4 4 9 7 15 12 14 9 16 12 5 7 6 2 2 7 5 2 4 5 8 21 21 22
36 39 45 45 41 37 31 15 22 18 17 13 7 6 10 7 6 8 12 10 14 17 11 9 6 2 4 3 10 7 10 1 3 1 2 6 5 6 4 6 6 11 20 24 26
45 47 49 46 45 47 16 29 17 8 12 13 20 13 17 14 13 15 15 9 8 20 7 6 5 2 3 3 0 5 11 4 4 5 6 5 6 8 8 13 9 13 21 23 26
48 24 41 47 47 30 14 27 24 12 12 16 20 13 11 12 16 11 13 5 13 12 20 6 4 4 5 12 17 6 7 4 3 4 4 4 5 5 12 13 14 16 20 25 28
49 12 29 52 21 15 19 29 28 30 17 14 6 20 14 14 15 17 19 13 22 19 16 10 3 6 11 1 3 11 12 12 7 6 4 2 6 2 2 7 12 13 17 22 27
39 33 33 58 18 19 28 27 28 21 30 18 14 10 10 14 10 18 13 11 21 18 18 12 5 6 4 4 2 8 9 15 11 2 11 7 3 1 1 4 10 12 17 23 26
10 4 17 48 52 28 26 31 29 38 20 28 16 18 10 13 12 8 13 7 22 19 18 24 9 16 18 8 10 12 15 16 18 10 12 19 8 8 10 10 13 16 18 22 29
9 2 6 6 18 29 27 19 29 25 33 23 13 28 25 19 19 24 13 5 5 10 11 13 16 18 22 12 9 10 19 21 25 27 15 17 20 15 15 15 20 23 19 23 30
6 1 4 2 8 26 27 29 33 30 15 27 26 24 19 28 31 23 22 17 12 9 8 5 14 16 16 13 12 9 18 25 26 24 23 15 18 8 21 17 13 17 22 27 32
14 15 5 2 2 1 19 28 31 24 28 37 33 24 24 35 33 28 20 22 13 17 18 12 11 7 15 9 5 9 23 21 18 17 19 19 17 6 8 14 19 20 27 30 26
Wind_Direction
184 185 212 219 232 227 237 261 274 286 298 312 318 322 326 321 319 309 284 228 207 202 199 189 188 168 113 78 76 110 171 167 172 177 152 152 181 187 235 260 47 147 183 228 259
222 237 241 250 258 266 265 272 279 291 300 307 312 315 321 322 318 297 266 227 201 189 189 181 172 146 93 74 32 260 220 163 165 159 159 155 183 180 208 202 168 153 259 283 274
245 249 256 257 259 262 267 272 278 287 296 302 307 312 317 323 316 272 260 197 182 176 169 163 145 121 96 88 23 63 128 144 177 172 158 159 215 174 230 235 172 175 201 172 145
251 257 258 260 261 263 265 270 277 281 286 293 300 306 309 314 286 211 156 152 158 157 156 154 140 90 103 138 116 191 143 163 153 186 169 199 178 221 218 223 188 207 186 193 228
246 251 258 259 260 263 267 270 274 281 286 291 297 303 307 283 247 224 208 187 177 172 177 183 186 147 184 156 160 209 170 200 201 209 228 221 228 246 221 204 201 212 192 224 271
245 248 251 255 257 258 263 269 274 278 282 287 290 294 290 259 249 233 224 213 209 205 209 212 202 169 122 167 228 139 217 253 251 235 212 212 240 188 198 208 201 178 191 207 227
245 247 248 250 252 255 258 264 268 272 275 281 285 288 280 262 249 230 226 218 214 212 215 215 198 168 146 147 152 18 289 292 232 214 217 184 226 225 194 167 159 174 188 203 245
243 246 249 248 248 251 257 262 266 268 273 277 281 282 260 257 243 233 226 217 210 210 209 199 177 159 124 133 79 237 252 253 126 165 159 196 244 157 166 164 168 174 200 234 260
242 245 246 246 247 248 253 261 264 266 271 274 274 254 254 245 234 228 213 213 203 193 185 178 166 126 138 192 214 213 259 229 285 192 144 220 278 135 176 187 182 192 210 227 255
240 242 245 244 245 247 250 256 261 268 267 268 249 246 237 221 216 210 201 189 172 169 144 157 132 181 179 198 236 206 222 231 241 143 223 241 251 172 190 201 210 209 200 177 193
240 238 239 242 242 245 248 253 266 262 233 214 219 202 180 201 194 192 187 177 161 163 181 151 206 215 216 218 259 210 235 259 213 123 238 246 264 255 206 221 220 213 196 177 189
233 238 234 236 239 240 239 217 219 224 290 244 239 231 223 192 182 190 180 174 173 188 138 161 230 234 145 195 218 228 251 259 273 218 235 264 261 264 226 230 232 224 193 177 170
234 232 233 230 231 233 233 227 229 249 267 253 232 231 220 212 213 193 183 183 182 169 194 211 161 171 172 171 202 227 233 243 261 201 218 270 265 252 224 193 189 184 182 177 174
232 231 227 221 219 226 233 221 207 193 264 234 211 218 202 194 213 196 185 177 182 208 179 235 164 155 184 210 205 241 223 232 232 244 262 232 281 238 211 203 196 190 187 180 174
231 227 220 211 210 212 229 200 183 156 270 131 151 176 166 177 142 179 180 194 182 169 181 200 178 189 214 224 186 264 145 203 213 234 265 218 256 248 177 232 207 193 184 177 172
231 230 216 210 208 219 206 171 155 193 239 165 132 160 152 157 123 116 169 158 141 130 276 273 71 194 205 96 193 136 101 82 84 201 252 233 221 199 214 222 177 186 187 179 174
228 233 224 211 206 201 176 153 178 224 131 179 174 173 166 151 144 165 172 180 173 183 223 197 220 175 160 116 96 182 165 183 217 209 251 65 214 257 242 176 115 180 182 184 182
229 219 212 208 208 190 176 186 218 224 208 109 120 139 182 154 185 157 159 192 218 200 146 198 235 191 187 214 181 190 196 206 213 204 222 107 230 242 320 126 137 151 181 182 184
220 216 212 206 202 194 181 200 221 209 189 149 133 166 196 205 172 167 197 210 197 193 205 195 247 195 196 148 167 180 212 169 110 81 263 208 230 238 183 195 171 164 178 187 189
216 215 212 206 203 194 202 214 223 193 159 177 205 189 186 185 176 193 181 192 201 194 200 199 235 218 143 140 140 207 145 172 214 218 231 207 239 224 205 207 183 185 192 193 194
220 209 208 209 205 201 208 224 217 210 171 181 212 200 207 181 196 195 200 167 201 192 194 155 237 140 147 208 187 173 190 205 216 222 239 260 228 214 205 186 190 197 197 196 196
210 216 206 201 196 207 211 214 218 212 220 228 222 210 192 181 192 208 203 205 189 151 177 196 161 195 207 120 303 234 215 184 200 191 237 307 244 175 131 169 188 188 197 201 203
219 212 203 190 201 204 222 222 222 211 213 219 213 202 195 193 213 205 203 204 170 169 169 171 198 228 221 214 182 218 204 216 235 57 210 211 225 134 202 239 202 193 200 204 203
224 213 202 193 204 206 206 215 217 216 220 212 229 229 209 211 224 206 209 188 193 199 195 167 175 208 225 217 161 205 205 202 202 220 218 227 221 196 205 214 204 204 208 205 204
241 248 191 205 202 206 208 209 216 212 216 201 218 217 214 229 225 233 199 155 196 223 188 188 226 217 235 243 203 208 196 195 208 221 214 233 225 196 195 202 206 211 199 197 203
184 236 258 205 225 208 203 211 212 212 177 212 222 208 212 217 212 220 221 214 210 176 191 220 228 217 241 229 216 228 211 202 211 219 233 242 246 187 204 202 198 200 198 203 207
193 198 240 246 194 271 216 221 216 209 217 218 217 222 215 224 229 246 227 222 209 186 188 185 203 183 232 197 162 250 214 198 206 214 213 219 231 136 178 197 205 198 204 209 209